Miami, FL

7:56 AM EST on February 25, 2017 (GMT -0500)
Miami International

Weather History for KMIA - October, 2011

Change the Weather History Date:

Tuesday, October 4, 2011

  Actual Average Record
Temperature  
Mean Temperature 82 °F 82 °F  
Max Temperature 86 °F 88 °F 93 °F (1988)
Min Temperature 78 °F 76 °F 64 °F (1913)
Degree Days  
Heating Degree Days 0 0  
Month to date heating degree days 0 0  
Since 1 July heating degree days 0 0  
Cooling Degree Days 17 17  
Month to date cooling degree days 69 68  
Year to date cooling degree days 4055 3680  
Growing Degree Days 31 (Base 50)    
Moisture  
Dew Point 64 °F    
Average Humidity 59    
Maximum Humidity 67    
Minimum Humidity 51    
Precipitation  
Precipitation 0.00 in 0.27 in 2.76 in (1967)
Month to date precipitation 0.00 1.11  
Year to date precipitation 45.42 51.37  
Snow  
Snow 0.00 in - - ()
Month to date snowfall 0.0  
Since 1 July snowfall 0.0  
Since 1 September snowfall 0.0  
Snow Depth 0.00 in    
Sea Level Pressure  
Sea Level Pressure 30.07 in    
Wind  
Wind Speed 9 mph (NE)    
Max Wind Speed 16 mph    
Max Gust Speed 23 mph    
Visibility 10 miles    
Events      
T = Trace of Precipitation, MM = Missing Value Source: NWS Daily Summary

Daily Weather History Graph

Daily Weather History Graph

Search for Another Location

Airport or City:

Trip Planner

Search our weather history database for the weather conditions in past years. The results will help you decide how hot, cold, wet, or windy it might be!

Date:

Astronomy

Oct. 04, 2011 Rise Set
Actual Time 7:14 AM EDT 7:04 PM EDT
Civil Twilight 6:51 AM EDT 7:27 PM EDT
Nautical Twilight 6:24 AM EDT 7:54 PM EDT
Astronomical Twilight 5:58 AM EDT 8:21 PM EDT
Moon 2:29 PM EDT (10/4) 12:36 AM EDT (10/4)
Length of Visible Light 12h 36m
Length of Day
11h 50m
First Quarter, 56% of the Moon is Illuminated
Oct 4
First Quarter
Oct 11
Full
Oct 19
Last Quarter
Oct 26
New
Nov 2
First Quarter

Hourly Weather History & Observations

Time (EDT) Temp. Heat Index Dew Point Humidity Pressure Visibility Wind Dir Wind Speed Gust Speed Precip Events Conditions
12:53 AM 79.0 °F - 66.0 °F 64% 30.06 in 10.0 mi NE 6.9 mph - N/A   Mostly Cloudy
1:53 AM 79.0 °F - 66.0 °F 64% 30.06 in 10.0 mi ENE 5.8 mph - N/A   Mostly Cloudy
2:53 AM 79.0 °F - 66.0 °F 64% 30.06 in 10.0 mi NE 6.9 mph - N/A   Clear
3:53 AM 79.0 °F - 66.0 °F 64% 30.04 in 10.0 mi NE 6.9 mph - N/A   Mostly Cloudy
4:53 AM 78.1 °F - 66.0 °F 66% 30.04 in 10.0 mi NNE 4.6 mph - N/A   Mostly Cloudy
5:53 AM 78.1 °F - 66.9 °F 68% 30.05 in 10.0 mi NNE 6.9 mph - N/A   Mostly Cloudy
6:53 AM 78.8 °F - 64.4 °F 61% 30.06 in 10.0 mi Variable 6.9 mph - N/A   Mostly Cloudy
7:53 AM 79.0 °F - 64.9 °F 62% 30.08 in 10.0 mi NE 9.2 mph - N/A   Mostly Cloudy
8:53 AM 80.1 °F 81.9 °F 64.9 °F 60% 30.09 in 10.0 mi NE 12.7 mph 18.4 mph N/A   Mostly Cloudy
9:53 AM 81.0 °F 82.7 °F 64.9 °F 58% 30.11 in 10.0 mi NE 12.7 mph 17.3 mph N/A   Mostly Cloudy
10:53 AM 82.4 °F 84.6 °F 66.2 °F 58% 30.11 in 10.0 mi ENE 12.7 mph 21.9 mph N/A   Mostly Cloudy
11:53 AM 84.9 °F 87.1 °F 66.0 °F 53% 30.11 in 10.0 mi ENE 12.7 mph - N/A   Mostly Cloudy
12:53 PM 84.9 °F 86.6 °F 64.9 °F 51% 30.10 in 10.0 mi ENE 11.5 mph 20.7 mph N/A   Scattered Clouds
1:53 PM 84.9 °F 86.6 °F 64.9 °F 51% 30.08 in 10.0 mi ENE 15.0 mph - N/A   Mostly Cloudy
2:53 PM 82.9 °F 84.0 °F 63.0 °F 51% 30.06 in 10.0 mi NE 15.0 mph 20.7 mph N/A   Mostly Cloudy
3:53 PM 84.0 °F 85.4 °F 64.0 °F 51% 30.04 in 10.0 mi NE 12.7 mph 18.4 mph N/A   Mostly Cloudy
4:53 PM 82.0 °F 83.1 °F 63.0 °F 52% 30.04 in 10.0 mi NE 10.4 mph - N/A   Mostly Cloudy
5:53 PM 80.6 °F 81.8 °F 62.6 °F 54% 30.04 in 10.0 mi NE 9.2 mph - N/A   Mostly Cloudy
6:53 PM 80.1 °F 81.2 °F 62.1 °F 54% 30.04 in 10.0 mi ENE 11.5 mph - N/A   Mostly Cloudy
7:53 PM 80.1 °F 81.2 °F 62.1 °F 54% 30.05 in 10.0 mi NNE 9.2 mph - N/A   Mostly Cloudy
8:53 PM 80.6 °F 81.8 °F 62.6 °F 54% 30.07 in 10.0 mi NE 5.8 mph - N/A   Overcast
9:53 PM 79.0 °F - 63.0 °F 58% 30.08 in 10.0 mi NE 8.1 mph - N/A   Mostly Cloudy
10:53 PM 80.1 °F 81.5 °F 63.0 °F 56% 30.08 in 10.0 mi ENE 6.9 mph - N/A   Overcast
11:53 PM 79.0 °F - 63.0 °F 58% 30.07 in 10.0 mi NE 5.8 mph - N/A   Overcast